Find Starlink 37272

NORAD ID: 68726 Int'l Des: 2026-081 Owner: SPXS Country: US Constellation: starlink operational
LEOCIRCULAR

当前视图

正在加载3D地球...

关于 Starlink 37272

正在加载描述...

即将过境

Passes for default location (London). Set your location on the main map for personalized predictions.

高度历史

Loading altitude history...

两行轨道根数

1 68726U 26081AD 26150.95898826 .00032384 00000-0 93475-3 0 9996
2 68726 53.1596 11.5938 0000705 58.4487 301.6585 15.35418014 7349
Epoch: May 30, 2026 • Age: 15 hours

当前状态

高度 465.0 km
速度 7.64 km/s
星下点 49.70°N, 35.06°E
发射日期 Apr 14, 2026
运行时间 0.1 years
类型 internet

技术详情

分类 Payload
质量 575.00 kg
干质量 530.00 kg
总质量 575.00 kg
长度 0.30 m
直径 4.10 m
跨度 29.00 m
形状 Box + pan
制造商 SPXS
平台类型 Starlink V2MO
阶段状态 In Orbit
所有者/国家 SPXS/US

Most Searched